Location: Ripley
(48.3812°N, 115.4473°W)
Time: 11:40:29
(UTC+00:00)

RS-15 - Pass Details

Date: 01 July 2022
Orbit: 1881 x 2163 km, 64.8° (Epoch: 13 August)

Event Time Altitude Azimuth Distance (km) Brightness Sun altitude
Rises 08:14:57 0° 322° (NW) 5,700 11.2 -18.2°
Reaches altitude 10° 08:18:34 10° 317° (NW) 4,690 10.5 -18.1°
Maximum altitude 08:30:06 50° 248° (WSW) 2,581 8.4 -17.8°
Enters shadow 08:37:51 22° 186° (S) 3,652 8.8 -17.6°
